Regional Weather Roundup
Issued by NWS Cleveland, OH

Home | Current Version | Previous Version | Graphics & Text | Print | Product List | Glossary On
Versions: 1 2 3 4 5 6 7 8 9 10 11 12 13 14 15 16 17 18 19 20 21 22 23 24 25 26 27 28 29 30 31 32 33 34 35 36 37 38 39 40 41 42 43 44 45 46 47 48 49 50
000
ASUS41 KCLE 170410
RWRCLE
OHIO REGIONAL WEATHER ROUNDUP
NATIONAL WEATHER SERVICE WILMINGTON, OH
1100 PM EST SAT DEC 16 2017

NOTE: "FAIR" INDICATES FEW OR NO CLOUDS BELOW 12,000 FEET WITH NO
SIGNIFICANT WEATHER AND/OR OBSTRUCTIONS TO VISIBILITY.

OHZ001>008-015>018-024>027-034-035-043-044-170500-
   NORTHWEST OHIO

CITY           SKY/WX    TMP DP  RH WIND       PRES   REMARKS
DEFIANCE       FAIR      28  24  85 NE5       30.12S WCI  23
FINDLAY        FAIR      29  24  82 E3        30.11R
TOLEDO EXPRESS CLOUDY    29  27  92 E6        30.14R WCI  23
TOLEDO EXEC    CLOUDY    30  27  88 NE6       30.15R WCI  24
LIMA           FAIR      36  27  69 S7        30.10S
$$

OHZ009>014-019>023-028>033-038-089-170500-
   NORTHEAST OHIO

CITY           SKY/WX    TMP DP  RH WIND       PRES   REMARKS
CLE-HOPKINS    FAIR      27  27 100 NE3       30.16R FOG
CLE-LAKEFRONT  FAIR      31  29  92 NE6       30.14R FOG     WCI  25
CUY CO. ARPT   CLEAR     30  28  93 E6        30.14R WCI  24
LORAIN-ELYRIA  FAIR      27  23  85 NE5       30.14R FOG     WCI  22
ASHTABULA      CLOUDY    28  27  96 CALM      30.14S FOG
AKRON-CANTON   FAIR      31  24  75 CALM      30.11R
WOOSTER        FAIR      22  20  92 SW5       30.12R FOG     WCI  16
MANSFIELD      FAIR      30  24  78 S5        30.11R WCI  25
YOUNGSTOWN     FAIR      25  23  92 E6        30.12R WCI  18
$$

OHZ042-051>053-060>062-070>072-077>081-170500-
  SOUTHWEST OHIO

CITY           SKY/WX    TMP DP  RH WIND       PRES   REMARKS
CINC-COVINGTON FAIR      42  30  62 SW9       30.15R
CINC-LUNKEN    FAIR      35  28  75 CALM      30.18R
HAMILTON       FAIR      33  27  78 CALM      30.16R
DAYTON         FAIR      37  28  70 S8        30.14R
WRIGHT-PAT AFB FAIR      30  27  88 CALM      30.14R
DAYTON GENERAL FAIR      37  27  67 S6        30.14R
WILMINGTON     FAIR      34  28  79 SW8       30.15R WCI  27
$$

OHZ036-037-039>041-045>050-054>059-063>069-073>076-082>088-170500-
  CENTRAL AND SOUTHEAST OHIO

CITY           SKY/WX    TMP DP  RH WIND       PRES   REMARKS
COLUMBUS       FAIR      36  27  69 S3        30.16R
OSU AIRPORT    FAIR      35  28  75 S6        30.14R
BOLTON FIELD   FAIR      29  25  84 S5        30.16R WCI  24
RICKENBACK AFB FAIR      31  26  82 S6        30.16R WCI  26
NEWARK         FAIR      27  23  85 CALM      30.15R
MARION         FAIR      31  25  78 S7        30.13R WCI  24
LANCASTER      FAIR      26  23  88 CALM      30.16R
ZANESVILLE     FAIR      28  22  78 CALM      30.16R
NEW PHILLY     FAIR      28  24  85 SE5       30.15R WCI  23
$$




USA.gov is the U.S. government's official web portal to all federal, state and local government web resources and services.